Regional Weather Roundup
Issued by NWS

Home | Current Version | Previous Version | Text Only | Print | Product List | Glossary Off
Versions: 1 2 3 4 5 6 7 8 9 10 11 12 13 14 15 16 17 18 19 20 21 22 23 24 25 26 27 28 29 30 31 32 33 34 35 36 37 38 39 40 41 42 43 44 45 46 47 48 49 50

000
ASUS43 KTOP 170259
RWRKS

WEATHER ROUNDUP FOR KANSAS
NATIONAL WEATHER SERVICE GOODLAND KS
1000 PM CDT WED APR 16 2014

NOTE:  "FAIR" INDICATES FEW OR NO CLOUDS BELOW 12,000 FEET WITH NO
SIGNIFICANT WEATHER AND/OR OBSTRUCTIONS TO VISIBILITY.

KSZ001>006-013>018-027>032-041>047-170400-
NORTHWEST KANSAS

CITY           SKY/WX    TMP DP  RH WIND       PRES   REMARKS
GOODLAND       CLOUDY    43  33  68 NE8       30.09R
HAYS           CLOUDY    50  32  50 NE12      30.07R
HILL CITY      CLOUDY    48  33  56 NE12      30.10R
RUSSELL        MOCLDY    50  34  54 N14       30.06R
$$

KSZ061>065-074>080-084>089-170400-
SOUTHWEST KANSAS

CITY           SKY/WX    TMP DP  RH WIND       PRES   REMARKS
DODGE CITY     CLOUDY    52  33  48 N21G28    30.04R
ELKHART          N/A     52  26  36 NE15        N/A
GARDEN CITY    CLOUDY    52  31  44 NE20      30.04R
GREAT BEND     CLOUDY    52  32  46 N17G23    30.04R
LIBERAL        MOCLDY    55  28  35 NE20G25   30.00R
$$

KSZ066>073-081>083-090>101-170400-
SOUTHEAST KANSAS

CITY           SKY/WX    TMP DP  RH WIND       PRES   REMARKS
CHANUTE        CLEAR     53  34  48 S10       29.99R
COFFEYVILLE    CLEAR     54  33  45 S12       30.00R
HUTCHINSON     PTCLDY    53  34  48 N18G26    30.01R
NEWTON         CLEAR     52  32  46 N18       30.04R
PARSONS        CLEAR     55  32  41 S7        30.00R
WICHITA INTL   MOCLDY    61  38  42 N16G23    29.99R
WICHITA JABRA  PTCLDY    57  38  48 N18G26    30.00R
WINFIELD       CLEAR     53  34  48 S8        29.97R
$$

KSZ007>012-019>026-033>040-048>060-102>105-170400-
NORTHEAST KANSAS

CITY           SKY/WX    TMP DP  RH WIND       PRES   REMARKS
CONCORDIA      MOCLDY    42  31  64 N16       30.10R
EMPORIA        PTCLDY    54  37  52 N13       30.00R
LAWRENCE       CLOUDY    54  37  52 N16       30.00R
MANHATTAN      PTCLDY    47  33  58 N9G20     30.05R
OLATHE IND     PTCLDY    54  33  45 NW9       29.99R
OLATHE EXE     PTCLDY    54  32  43 SW9       29.96R
SALINA         MOCLDY    50  34  54 N16       30.06R
TOPEKA BILLARD PTCLDY    50  35  56 NW12      30.04R
TOPEKA FORBES  PTCLDY    51  35  54 N16       30.02R
$$



USA.gov is the U.S. government's official web portal to all federal, state and local government web resources and services.